[[{"header":{"parameterUnit":"m.s-1","parameterCategory":1,"la1":30.2991,"la2":30.254,"lo1":-89.0895,"lo2":-89.0444,"dy":0.0017,"dx":0.0017,"nx":28,"ny":28,"refTime":"2023-09-07T03:00:00:Z","depth":0,"parameterNumber":2,"parameterNumberName":"U-component_of_WINDS"},"data":[0,0,0,0,0,0,0,0,0,0,0,0,0,0,0,0,0,0,0,0,0,0,0,0,0,0,0,0,0,0,0,0,0,0,0,0,0,0,0,0,0,0,0,0,0,0,0,0,0,0,0,0,0,0,0,0,0,0,-1.6609,-1.6608,0,-1.6548,-1.6547,-1.6546,-1.6543,-1.6544,-1.6545,-1.6546,-1.648,-1.6478,-1.6475,0,0,0,0,0,0,0,0,0,0,0,0,0,-1.672,-1.6718,-1.6609,-1.6608,-1.6608,-1.6548,-1.6547,-1.6546,-1.6543,-1.6544,-1.6545,-1.6546,-1.6481,-1.6478,-1.6475,0,0,0,0,0,0,0,0,0,0,0,0,0,-1.6667,-1.6718,-1.6609,-1.6599,-1.6598,-1.6548,-1.6547,-1.6546,-1.6543,-1.6544,-1.6545,-1.6546,-1.6482,-1.6478,-1.6475,-1.643,0,0,-1.6464,-1.6462,0,0,0,0,0,0,0,0,-1.667,-1.6663,-1.6601,-1.66,-1.6598,-1.6554,-1.6562,-1.6507,-1.6543,-1.6564,-1.6546,-1.6547,-1.6504,-1.6498,-1.6484,-1.6427,-1.6424,-1.6463,-1.6461,-1.646,-1.6458,0,0,0,0,0,0,0,-1.6673,-1.6665,-1.6585,-1.66,-1.6598,-1.6596,-1.659,-1.6552,-1.6528,-1.6562,-1.6562,-1.6555,-1.6503,-1.6488,-1.6483,-1.6424,-1.6463,-1.646,-1.6458,-1.6456,-1.6323,-1.6322,0,0,0,0,0,0,-1.668,-1.6668,-1.6587,-1.6583,-1.6637,-1.6593,-1.6586,-1.6567,-1.6529,-1.6524,-1.6554,-1.6555,-1.6494,-1.6487,-1.648,-1.6423,-1.646,-1.6456,-1.6454,-1.6324,-1.6323,-1.6321,0,0,0,0,0,0,-1.6682,-1.6672,-1.6589,-1.6625,-1.6615,-1.659,-1.6569,-1.6565,-1.655,-1.6522,-1.6518,-1.6543,-1.6494,-1.6486,-1.6442,-1.6421,-1.6454,-1.6451,-1.6326,-1.6324,-1.6322,-1.631,0,0,0,0,0,0,-1.6685,-1.6673,-1.6657,-1.6625,-1.6613,-1.6553,-1.6568,-1.6563,-1.6544,-1.6545,-1.6511,-1.6506,-1.6494,-1.6448,-1.6439,-1.6416,-1.6448,-1.6328,-1.6325,-1.6323,-1.6312,-1.6307,-1.6304,0,0,0,0,0,-1.6689,-1.6656,-1.6656,-1.6647,-1.6592,-1.6552,-1.6545,-1.6532,-1.6543,-1.6525,-1.6507,-1.6507,-1.6425,-1.6443,-1.6433,-1.6409,-1.6329,-1.6326,-1.6323,-1.6314,-1.6308,-1.6304,0,0,0,0,0,0,-1.6686,-1.6652,-1.6652,-1.6608,-1.6583,-1.6552,-1.6529,-1.6528,-1.6499,-1.65,-1.6485,-1.6478,-1.6434,-1.6418,-1.6438,-1.6363,-1.6378,-1.6373,-1.6375,-1.6369,-1.6365,-1.6369,-1.6445,0,0,0,0,0,-1.6681,-1.6652,-1.6623,-1.6587,-1.6575,-1.6554,-1.6536,-1.6529,-1.6502,-1.6491,-1.647,-1.6443,-1.641,-1.6389,-1.6358,-1.631,-1.6301,-1.6289,-1.6285,-1.6282,-1.6276,-1.6246,-1.6239,-1.6311,-1.6311,-1.6311,0,0,-1.6669,-1.6646,-1.6629,-1.6586,-1.6566,-1.6534,-1.6545,-1.6512,-1.6488,-1.6486,-1.6443,-1.6426,-1.6395,-1.6348,-1.6326,-1.6333,-1.6255,-1.6278,-1.6275,-1.6272,-1.6242,-1.6235,-1.6229,-1.6309,-1.631,-1.631,0,0,-1.663,-1.6612,-1.6578,-1.6557,-1.6526,-1.6512,-1.6504,-1.6473,-1.6461,-1.6418,-1.6415,-1.6385,-1.6331,-1.6308,-1.6289,-1.6239,-1.6237,-1.623,-1.6207,-1.6178,-1.6172,-1.6167,-1.6146,-1.6139,-1.6225,-1.6225,-1.6225,0,-1.6618,-1.6572,-1.6561,-1.6527,-1.6506,-1.6503,-1.6468,-1.6448,-1.6408,-1.6393,-1.6402,-1.6332,-1.6311,-1.6257,-1.6244,-1.623,-1.6218,-1.6232,-1.6174,-1.6169,-1.6164,-1.6143,-1.6136,-1.6224,-1.6224,-1.6224,-1.6224,0,-1.6557,-1.6525,-1.6501,-1.6462,-1.644,-1.6406,-1.6387,-1.6366,-1.636,-1.6345,-1.6299,-1.6274,-1.6236,-1.6223,-1.6218,-1.6167,-1.6172,-1.6178,-1.6192,-1.6156,-1.6136,-1.6129,-1.6223,-1.6223,-1.6223,-1.6224,0,0,-1.6515,-1.6469,-1.646,-1.6441,-1.6406,-1.638,-1.6344,-1.6308,-1.6288,-1.626,-1.6228,-1.6181,-1.6186,-1.6164,-1.6156,-1.613,-1.6088,-1.6139,-1.6138,-1.6127,-1.6027,-1.602,-1.6012,-1.6088,-1.6086,-1.6085,-1.6028,0,-1.647,-1.6407,-1.6394,-1.6339,-1.6307,-1.6302,-1.6271,-1.6245,-1.6229,-1.6199,-1.6181,-1.6147,-1.6157,-1.6144,-1.6119,-1.6099,-1.6067,-1.6103,-1.6054,-1.6053,-1.6059,-1.6002,-1.5995,-1.5943,-1.6021,-1.602,-1.6019,0,-1.6409,-1.6379,-1.632,-1.6286,-1.6272,-1.6244,-1.6207,-1.6179,-1.6149,-1.6139,-1.6114,-1.6108,-1.6068,-1.6087,-1.603,-1.6054,-1.6034,-1.6021,-1.6019,-1.6011,-1.6031,-1.599,-1.5927,-1.5917,-1.6007,-1.6008,-1.6009,0,-1.6379,-1.6324,-1.6281,-1.6265,-1.6226,-1.6205,-1.6188,-1.6159,-1.6136,-1.6105,-1.6089,-1.6054,-1.6033,-1.6005,-1.5988,-1.6004,-1.5931,-1.5949,-1.592,-1.592,-1.5902,-1.5903,-1.5832,-1.5895,-1.5895,-1.5895,-1.5895,0,-1.6328,-1.6291,-1.6267,-1.624,-1.6197,-1.6183,-1.6141,-1.6124,-1.6097,-1.6065,-1.606,-1.603,-1.6012,-1.5978,-1.5965,-1.5918,-1.591,-1.5899,-1.5895,-1.5897,-1.5898,-1.5881,-1.5883,-1.5893,-1.5893,-1.5894,-1.5894,0,-1.6287,-1.627,-1.6222,-1.6188,-1.6178,-1.6148,-1.6118,-1.6091,-1.6075,-1.6034,-1.6024,-1.5999,-1.5959,-1.594,-1.5891,-1.5882,-1.5827,-1.5828,-1.5838,-1.5835,-1.5805,-1.5807,-1.5718,-1.5704,-1.578,-1.5779,-1.5779,0,-1.6255,-1.6226,-1.6189,-1.6167,-1.6148,-1.6114,-1.6091,-1.6075,-1.6051,-1.6013,-1.5989,-1.5949,-1.5916,-1.5852,-1.5828,-1.579,-1.5787,-1.5758,-1.5781,-1.5783,-1.5782,-1.5782,-1.5778,-1.5753,-1.5753,-1.5752,-1.5752,0,-1.6197,-1.6189,-1.6157,-1.612,-1.6092,-1.6062,-1.6033,-1.6016,-1.5995,-1.5968,-1.5927,-1.5901,-1.585,-1.5809,-1.5768,-1.5749,-1.5745,-1.5745,-1.5735,-1.5736,-1.5741,-1.5734,-1.5823,-1.5746,-1.5747,-1.5747,-1.5748,-1.5748,-1.6157,-1.613,-1.6098,-1.6061,-1.6037,-1.6009,-1.5981,-1.5961,-1.5927,-1.5884,-1.5877,-1.5832,-1.58,-1.5745,-1.5724,-1.5687,-1.5693,-1.5681,-1.5677,-1.5673,-1.5669,-1.5749,-1.568,-1.568,-1.568,-1.5681,-1.5681,0,-1.6096,-1.6075,-1.6041,-1.6,-1.5969,-1.5971,-1.5938,-1.5912,-1.5872,-1.5843,-1.581,-1.5761,-1.5721,-1.5693,-1.5652,-1.5628,-1.5625,-1.5617,-1.5617,-1.5611,-1.5668,-1.5678,-1.562,-1.562,-1.562,-1.562,-1.562,-1.562,-1.6061,-1.6013,-1.6002,-1.5942,-1.5921,-1.5877,-1.5858,-1.5831,-1.5806,-1.5752,-1.5718,-1.5701,-1.5671,-1.5627,-1.5589,-1.5582,-1.5566,-1.5557,-1.5549,-1.5602,-1.5608,-1.5614,-1.5624,-1.5554,-1.5554,-1.5495,-1.5495,-1.5495]},{"header":{"parameterUnit":"m.s-1","parameterCategory":1,"la1":30.2991,"la2":30.254,"lo1":-89.0895,"lo2":-89.0444,"dy":0.0017,"dx":0.0017,"nx":28,"ny":28,"refTime":"2023-09-07T03:00:00:Z","depth":0,"parameterNumber":3,"parameterNumberName":"V-component_of_WINDS"},"data":[0,0,0,0,0,0,0,0,0,0,0,0,0,0,0,0,0,0,0,0,0,0,0,0,0,0,0,0,0,0,0,0,0,0,0,0,0,0,0,0,0,0,0,0,0,0,0,0,0,0,0,0,0,0,0,0,0,0,-1.6189,-1.6191,0,-1.6336,-1.6338,-1.634,-1.6446,-1.6447,-1.6448,-1.6449,-1.66,-1.6604,-1.6607,0,0,0,0,0,0,0,0,0,0,0,0,0,-1.6002,-1.6005,-1.6189,-1.6191,-1.6193,-1.6336,-1.6338,-1.634,-1.6446,-1.6447,-1.6448,-1.6449,-1.6599,-1.6603,-1.6607,0,0,0,0,0,0,0,0,0,0,0,0,0,-1.6109,-1.6006,-1.6189,-1.6263,-1.6271,-1.6336,-1.6338,-1.6341,-1.6446,-1.6447,-1.6448,-1.645,-1.6598,-1.6603,-1.6608,-1.6611,0,0,-1.6622,-1.6624,0,0,0,0,0,0,0,0,-1.6103,-1.6116,-1.625,-1.6258,-1.6267,-1.6374,-1.6328,-1.6431,-1.6445,-1.6379,-1.6449,-1.645,-1.6524,-1.6535,-1.656,-1.6618,-1.6624,-1.6623,-1.6626,-1.6628,-1.6629,0,0,0,0,0,0,0,-1.6096,-1.6111,-1.6247,-1.6252,-1.6262,-1.6289,-1.6306,-1.6348,-1.6443,-1.6385,-1.6393,-1.6409,-1.6529,-1.6555,-1.6564,-1.6627,-1.6623,-1.6627,-1.663,-1.6632,-1.6695,-1.6694,0,0,0,0,0,0,-1.6076,-1.6104,-1.6243,-1.6252,-1.6187,-1.6292,-1.631,-1.6338,-1.6442,-1.6459,-1.6408,-1.6414,-1.6546,-1.6558,-1.657,-1.658,-1.6628,-1.6632,-1.6635,-1.6696,-1.6695,-1.6694,0,0,0,0,0,0,-1.6072,-1.6088,-1.6237,-1.618,-1.6201,-1.6293,-1.6324,-1.6341,-1.6367,-1.646,-1.6477,-1.6417,-1.6548,-1.6563,-1.66,-1.6587,-1.6634,-1.6639,-1.6698,-1.6696,-1.6694,-1.66,0,0,0,0,0,0,-1.6066,-1.6086,-1.6087,-1.6179,-1.6204,-1.6263,-1.6323,-1.6343,-1.6374,-1.6383,-1.6472,-1.6489,-1.655,-1.6592,-1.6605,-1.6594,-1.6643,-1.6699,-1.6697,-1.6695,-1.6604,-1.6595,-1.6587,0,0,0,0,0,-1.6059,-1.6055,-1.6087,-1.6103,-1.6207,-1.6262,-1.6276,-1.6346,-1.6373,-1.6375,-1.6435,-1.6486,-1.6587,-1.6595,-1.661,-1.6601,-1.67,-1.6698,-1.6695,-1.6608,-1.6597,-1.6587,0,0,0,0,0,0,-1.5959,-1.6068,-1.6105,-1.613,-1.6186,-1.628,-1.6285,-1.6332,-1.6382,-1.6388,-1.6474,-1.6493,-1.652,-1.6565,-1.6572,-1.661,-1.665,-1.665,-1.6579,-1.6569,-1.656,-1.6548,-1.6647,0,0,0,0,0,-1.594,-1.5974,-1.6069,-1.6082,-1.6108,-1.6191,-1.6218,-1.6268,-1.6329,-1.6353,-1.6416,-1.6474,-1.6519,-1.6547,-1.6594,-1.6612,-1.6633,-1.6614,-1.6605,-1.6597,-1.6595,-1.6608,-1.6601,-1.6685,-1.6685,-1.6685,0,0,-1.59,-1.5965,-1.5981,-1.6064,-1.6113,-1.6147,-1.6211,-1.6245,-1.6271,-1.6359,-1.6396,-1.6445,-1.6516,-1.6543,-1.6558,-1.6581,-1.6577,-1.6594,-1.6587,-1.659,-1.6605,-1.6597,-1.659,-1.6683,-1.6683,-1.6683,0,0,-1.5846,-1.5898,-1.5915,-1.5963,-1.6036,-1.6092,-1.6096,-1.6183,-1.6218,-1.6258,-1.6324,-1.6358,-1.6434,-1.6481,-1.6515,-1.648,-1.6528,-1.6493,-1.6446,-1.6458,-1.6451,-1.6446,-1.6432,-1.6426,-1.6492,-1.6492,-1.6492,0,-1.5787,-1.5841,-1.5917,-1.5947,-1.5981,-1.6063,-1.608,-1.6123,-1.6208,-1.623,-1.6255,-1.6352,-1.6405,-1.6444,-1.6436,-1.6461,-1.6468,-1.6482,-1.6446,-1.6441,-1.6437,-1.6425,-1.642,-1.6487,-1.6488,-1.6488,-1.6489,0,-1.5765,-1.5802,-1.5807,-1.5886,-1.5921,-1.5944,-1.6024,-1.6051,-1.6098,-1.6151,-1.6191,-1.6258,-1.632,-1.6334,-1.638,-1.638,-1.6391,-1.643,-1.6472,-1.6423,-1.6413,-1.6409,-1.648,-1.6482,-1.6483,-1.6484,0,0,-1.5649,-1.5771,-1.5771,-1.5808,-1.5896,-1.5926,-1.5954,-1.6014,-1.6034,-1.6091,-1.6116,-1.6179,-1.6215,-1.6254,-1.6307,-1.6317,-1.6284,-1.6355,-1.6358,-1.6338,-1.6287,-1.6255,-1.6248,-1.6317,-1.6317,-1.6317,-1.628,0,-1.5606,-1.5659,-1.5729,-1.5758,-1.5792,-1.5871,-1.5896,-1.5953,-1.6004,-1.6041,-1.6099,-1.6141,-1.6186,-1.621,-1.6224,-1.6285,-1.6274,-1.6289,-1.6341,-1.6342,-1.6318,-1.6244,-1.621,-1.6173,-1.6277,-1.6276,-1.6276,0,-1.5562,-1.5614,-1.5646,-1.5732,-1.5749,-1.5769,-1.583,-1.5865,-1.5931,-1.5968,-1.6011,-1.6069,-1.6103,-1.6142,-1.619,-1.6198,-1.6224,-1.6257,-1.6258,-1.6263,-1.6304,-1.6245,-1.6163,-1.6156,-1.6271,-1.6271,-1.6272,0,-1.5472,-1.555,-1.5579,-1.5609,-1.571,-1.5722,-1.5765,-1.5833,-1.5864,-1.5918,-1.5939,-1.5997,-1.6027,-1.6071,-1.6142,-1.6164,-1.6182,-1.6227,-1.6213,-1.6211,-1.621,-1.6209,-1.6128,-1.6231,-1.6231,-1.6231,-1.6231,0,-1.5415,-1.5431,-1.554,-1.5557,-1.5578,-1.566,-1.5678,-1.5729,-1.5789,-1.5818,-1.5891,-1.5917,-1.6011,-1.6049,-1.6106,-1.6136,-1.615,-1.618,-1.6195,-1.6172,-1.6168,-1.6188,-1.6192,-1.623,-1.623,-1.623,-1.6231,0,-1.5315,-1.5389,-1.5426,-1.5519,-1.5543,-1.5554,-1.5634,-1.5654,-1.5711,-1.5747,-1.576,-1.5848,-1.5896,-1.5973,-1.6044,-1.6082,-1.6102,-1.6127,-1.6078,-1.6086,-1.6067,-1.6067,-1.5995,-1.5989,-1.6096,-1.6095,-1.6094,0,-1.5273,-1.5287,-1.5381,-1.5406,-1.5446,-1.5485,-1.5517,-1.5599,-1.563,-1.5708,-1.5719,-1.5773,-1.582,-1.5893,-1.5964,-1.6019,-1.6045,-1.6016,-1.6053,-1.603,-1.6042,-1.6039,-1.604,-1.6006,-1.6004,-1.6003,-1.6002,0,-1.5189,-1.5225,-1.5269,-1.5325,-1.5362,-1.5411,-1.5463,-1.5479,-1.5573,-1.5605,-1.5654,-1.569,-1.5763,-1.5815,-1.588,-1.5926,-1.5979,-1.599,-1.599,-1.5965,-1.5935,-1.5949,-1.6052,-1.5991,-1.5992,-1.5993,-1.5993,-1.5994,-1.5115,-1.5131,-1.52,-1.5247,-1.5295,-1.5342,-1.5366,-1.5426,-1.5468,-1.5532,-1.5579,-1.5626,-1.5694,-1.5786,-1.5829,-1.5867,-1.5891,-1.589,-1.5889,-1.5887,-1.5878,-1.5931,-1.588,-1.588,-1.588,-1.5881,-1.5881,0,-1.5033,-1.5082,-1.5124,-1.5194,-1.5231,-1.528,-1.5341,-1.5368,-1.5407,-1.5466,-1.5511,-1.5568,-1.562,-1.5695,-1.5753,-1.5769,-1.5795,-1.5781,-1.5779,-1.5788,-1.5854,-1.5848,-1.5759,-1.5759,-1.5759,-1.5759,-1.5759,-1.5759,-1.4994,-1.5023,-1.5068,-1.5122,-1.5172,-1.5217,-1.5247,-1.5292,-1.5339,-1.5399,-1.5442,-1.5491,-1.5557,-1.562,-1.567,-1.5691,-1.5708,-1.5685,-1.5714,-1.5773,-1.5784,-1.5795,-1.5789,-1.5689,-1.5689,-1.5645,-1.5644,-1.5644]}]]